This is the latest recevied weather packets stored in our database for station/object VK6WB. If no packets are shown the sender has not sent any weather packets the latest 10 day(s).
| Time | Temp. | Humidity | Pressure | Rain* | Wind** | Luminosity | Snow |
|---|---|---|---|---|---|---|---|
| 1777833006 | 12.22° C | 25% | 1022.6 hPa | 0 mm | - | 272 W/m² | - |
| 1777832405 | 12.22° C | 23% | 1022.6 hPa | 0 mm | - | 272 W/m² | - |
| 1777831805 | 12.78° C | 22% | 1022.6 hPa | 0 mm | - | 272 W/m² | - |
| 1777831206 | 12.78° C | 20% | 1022.6 hPa | 0 mm | - | 272 W/m² | - |
| 1777830605 | 12.78° C | 18% | 1022.6 hPa | 0 mm | - | 323 W/m² | - |
| 1777830005 | 12.78° C | 17% | 1022.6 hPa | 0 mm | - | 375 W/m² | - |
| 1777829406 | 12.78° C | 18% | 1022.6 hPa | 0 mm | - | 427 W/m² | - |
| 1777828805 | 12.78° C | 18% | 1022.5 hPa | 0 mm | - | 427 W/m² | - |
| 1777828206 | 12.78° C | 16% | 1022.6 hPa | 0 mm | - | 478 W/m² | - |
| 1777827605 | 12.78° C | 15% | 1022.7 hPa | 0 mm | - | 530 W/m² | - |
| 1777827005 | 12.78° C | 15% | 1022.9 hPa | 0 mm | - | 582 W/m² | - |
| 1777826405 | 12.78° C | 14% | 1022.7 hPa | 0 mm | - | 634 W/m² | - |
| 1777825805 | 12.22° C | 15% | 1022.5 hPa | 0 mm | - | 634 W/m² | - |
| 1777825205 | 12.22° C | 18% | 1022.5 hPa | 0 mm | - | 686 W/m² | - |
| 1777824605 | 12.22° C | 21% | 1022.7 hPa | 0 mm | - | 737 W/m² | - |
| 1777824006 | 12.22° C | 21% | 1022.5 hPa | 0 mm | - | 789 W/m² | - |
| 1777823406 | 12.22° C | 20% | 1022.4 hPa | 0 mm | - | 789 W/m² | - |
| 1777822805 | 12.78° C | 19% | 1022.3 hPa | 0 mm | - | 789 W/m² | - |
| 1777822205 | 12.78° C | 17% | 1022.2 hPa | 0 mm | - | 789 W/m² | - |
| 1777821605 | 12.78° C | 16% | 1022.2 hPa | 0 mm | - | 737 W/m² | - |
| 1777821005 | 12.78° C | 16% | 1022.4 hPa | 0 mm | - | 685 W/m² | - |
| 1777820405 | 12.78° C | 15% | 1022.4 hPa | 0 mm | - | 685 W/m² | - |
| 1777819805 | 13.33° C | 15% | 1022.4 hPa | 0 mm | - | 582 W/m² | - |
| 1777819205 | 13.33° C | 12% | 1022.5 hPa | 0 mm | - | 478 W/m² | - |
| 1777818605 | 13.33° C | 10% | 1022.4 hPa | 0 mm | - | 478 W/m² | - |
* Rain latest hour (hover to see other rain measurements)
** Current wind speed in m/s (hover to see current wind gust speed)